Date String (YYYY-MM-DD hh:mm:ss) UTC,Instrument flags,absolute air pressure of the measurement (hPa),sample flow rate (lpm),inlet stack bypass flow (lpm),air temperature of the measurement (°C),ambient temperature measured by the external sensor (°C),aerosol sample conditioner tube jacket temperature (°C),OPC LED temperature (°C),internal box temperature (°C),relative humidity of the measurement (%),span deviation,mass concentration of particles derived from Lorenz-Mie calculation of OPC scattering (μg/m³),mass concentration of particles derived from Lorenz-Mie calculation of OPC scattering (μg/m³),mass concentration of particles derived from Lorenz-Mie calculation of OPC scattering (μg/m³)
DateTimeUTC,F1_M11,P_M11,Q1_M11,Q2_M11,T1_M11,T2_M11,T3_M11,T4_M11,T5_M11,U1_M11,ZSPAN_M11,X0_M11,X2_M11,X1_M11
2024-04-11 12:00:00,SystemResetWarning,0833.1,5.00,000.00,023.7,022.9,000.0,032.3,025.5,015.5,0000.0,0008.78,0002.65,0001.95
2024-04-11 12:01:00,SystemResetWarning,0833.0,4.99,000.00,023.7,022.9,000.0,032.3,025.5,015.4,0000.0,0008.86,0002.67,0001.95
2024-04-11 12:02:00,SystemResetWarning,0833.0,5.00,000.00,023.7,022.9,000.0,032.3,025.5,015.3,0000.0,0008.79,0002.61,0001.94
2024-04-11 12:03:00,SystemResetWarning,0833.2,5.00,000.00,023.7,022.9,000.0,032.3,025.5,015.3,0000.0,0008.83,0002.62,0001.93
2024-04-11 12:04:00,SystemResetWarning,0833.1,5.00,000.00,023.7,022.9,000.0,032.3,025.5,015.4,0000.0,0008.32,0002.63,0001.95
2024-04-11 12:05:00,SystemResetWarning,0833.1,5.00,000.00,023.7,022.9,000.0,032.3,025.5,015.4,0000.0,0008.24,0002.60,0001.96
2024-04-11 12:06:00,SystemResetWarning,0833.1,5.01,000.00,023.7,022.9,000.0,032.3,025.5,015.2,0000.0,0007.58,0002.54,0001.96
2024-04-11 12:07:00,SystemResetWarning,0833.3,5.00,000.00,023.7,022.9,000.0,032.3,025.5,015.1,0000.0,0006.81,0002.46,0001.95
2024-04-11 12:08:00,SystemResetWarning,0833.1,5.00,000.00,023.7,022.9,000.0,032.3,025.5,015.0,0000.0,0006.87,0002.47,0001.94
2024-04-11 12:09:00,SystemResetWarning,0833.2,5.00,000.00,023.7,022.9,000.0,032.3,025.5,014.8,0000.0,0006.77,0002.41,0001.92
2024-04-11 12:10:00,SystemResetWarning,0833.5,5.00,000.00,023.6,022.9,000.0,032.3,025.5,014.7,0000.0,0004.54,0002.35,0001.88
2024-04-11 12:11:00,SystemResetWarning,0833.2,5.00,000.00,023.6,022.8,000.0,032.3,025.5,014.8,0000.0,0004.33,0002.38,0001.86
2024-04-11 12:12:00,SystemResetWarning,0833.4,4.99,000.00,023.6,022.8,000.0,032.3,025.5,014.8,0000.0,0004.12,0002.31,0001.84
2024-04-11 12:13:00,SystemResetWarning,0833.2,4.99,000.00,023.6,022.8,000.0,032.2,025.5,014.7,0000.0,0004.34,0002.29,0001.82
2024-04-11 12:14:00,SystemResetWarning,0833.2,5.00,000.00,023.6,022.8,000.0,032.2,025.5,014.8,0000.0,0004.32,0002.25,0001.80
2024-04-11 12:15:00,SystemResetWarning,0833.2,5.00,000.00,023.6,022.8,000.0,032.2,025.5,015.1,0000.0,0004.13,0002.22,0001.78
2024-04-11 12:16:00,SystemResetWarning,0833.1,5.01,000.00,023.6,022.8,000.0,032.2,025.5,015.2,0000.0,0004.19,0002.21,0001.76
2024-04-11 12:17:00,SystemResetWarning,0833.0,5.00,000.00,023.6,022.8,000.0,032.2,025.5,015.4,0000.0,0004.38,0002.25,0001.76
2024-04-11 12:18:00,SystemResetWarning,0833.0,5.00,000.00,023.6,022.8,000.0,032.2,025.5,015.1,0000.0,0004.50,0002.28,0001.78
2024-04-11 12:19:00,SystemResetWarning,0833.0,4.99,000.00,023.6,022.8,000.0,032.2,025.5,015.0,0000.0,0004.30,0002.27,0001.78
2024-04-11 12:20:00,SystemResetWarning,0833.0,5.00,000.00,023.6,022.8,000.0,032.2,025.5,015.0,0000.0,0004.35,0002.35,0001.80
2024-04-11 12:21:00,SystemResetWarning,0833.0,5.01,000.00,023.6,022.8,000.0,032.2,025.4,015.1,0000.0,0005.39,0002.48,0001.82
2024-04-11 12:22:00,SystemResetWarning,0833.0,5.01,000.00,023.6,022.8,000.0,032.2,025.5,015.1,0000.0,0005.51,0002.46,0001.83
2024-04-11 12:23:00,SystemResetWarning,0833.0,5.00,000.00,023.6,022.8,000.0,032.2,025.5,015.1,0000.0,0006.03,0002.48,0001.83
2024-04-11 12:24:00,SystemResetWarning,0833.4,5.00,000.00,023.6,022.8,000.0,032.2,025.4,015.1,0000.0,0006.06,0002.50,0001.86
2024-04-11 12:25:00,SystemResetWarning,0833.5,4.99,000.00,023.5,022.7,000.0,032.2,025.4,015.0,0000.0,0007.03,0002.54,0001.88
2024-04-11 12:26:00,SystemResetWarning,0833.2,5.00,000.00,023.5,022.7,000.0,032.2,025.4,014.9,0000.0,0007.32,0002.55,0001.89
2024-04-11 12:27:00,SystemResetWarning,0833.4,4.99,000.00,023.5,022.7,000.0,032.2,025.4,014.9,0000.0,0007.94,0002.56,0001.89
2024-04-11 12:28:00,SystemResetWarning,0833.4,5.00,000.00,023.5,022.8,000.0,032.2,025.4,014.8,0000.0,0008.38,0002.56,0001.91
2024-04-11 12:29:00,SystemResetWarning,0833.0,5.00,000.00,023.5,022.7,000.0,032.2,025.4,014.8,0000.0,0008.44,0002.56,0001.89
2024-04-11 12:30:00,SystemResetWarning,0833.2,5.01,000.00,023.5,022.7,000.0,032.2,025.4,014.9,0000.0,0009.12,0002.60,0001.90
2024-04-11 12:31:00,SystemResetWarning,0833.3,5.00,000.00,023.5,022.7,000.0,032.2,025.4,014.7,0000.0,0009.34,0002.54,0001.90
2024-04-11 12:32:00,SystemResetWarning,0833.2,5.00,000.00,023.5,022.8,000.0,032.2,025.4,014.8,0000.0,0008.87,0002.45,0001.90
2024-04-11 12:33:00,SystemResetWarning,0833.2,5.00,000.00,023.5,022.8,000.0,032.2,025.4,014.9,0000.0,0009.10,0002.46,0001.92
2024-04-11 12:34:00,SystemResetWarning,0833.0,5.00,000.00,023.5,022.8,000.0,032.2,025.4,014.8,0000.0,0008.98,0002.50,0001.94
2024-04-11 12:35:00,SystemResetWarning,0833.0,5.00,000.00,023.5,022.8,000.0,032.1,025.4,014.9,0000.0,0008.94,0002.50,0001.92
2024-04-11 12:36:00,SystemResetWarning,0833.0,5.00,000.00,023.5,022.8,000.0,032.1,025.4,014.9,0000.0,0008.18,0002.48,0001.90
2024-04-11 12:37:00,SystemResetWarning,0833.1,5.00,000.00,023.5,022.7,000.0,032.1,025.4,014.8,0000.0,0008.00,0002.46,0001.89
2024-04-11 12:38:00,SystemResetWarning,0833.0,4.99,000.00,023.5,022.7,000.0,032.1,025.4,014.9,0000.0,0007.41,0002.50,0001.91
2024-04-11 12:39:00,SystemResetWarning,0833.0,5.00,000.00,023.5,022.7,000.0,032.1,025.4,014.7,0000.0,0006.49,0002.47,0001.90
2024-04-11 12:40:00,SystemResetWarning,0833.0,5.00,000.00,023.5,022.7,000.0,032.1,025.4,014.8,0000.0,0006.30,0002.45,0001.89
2024-04-11 12:41:00,SystemResetWarning,0833.2,5.00,000.00,023.5,022.7,000.0,032.1,025.4,014.6,0000.0,0005.31,0002.43,0001.88
2024-04-11 12:42:00,SystemResetWarning,0833.2,5.01,000.00,023.5,022.7,000.0,032.1,025.4,014.7,0000.0,0005.71,0002.39,0001.87
2024-04-11 12:43:00,SystemResetWarning,0833.4,5.00,000.00,023.5,022.7,000.0,032.1,025.4,014.7,0000.0,0005.71,0002.38,0001.86
2024-04-11 12:44:00,SystemResetWarning,0833.3,5.00,000.00,023.5,022.8,000.0,032.1,025.4,014.7,0000.0,0005.11,0002.37,0001.83
2024-04-11 12:45:00,SystemResetWarning,0833.1,5.00,000.00,023.5,022.7,000.0,032.1,025.4,014.7,0000.0,0004.68,0002.36,0001.80
2024-04-11 12:46:00,SystemResetWarning,0833.0,5.00,000.00,023.5,022.7,000.0,032.1,025.4,014.3,0000.0,0004.68,0002.36,0001.80
2024-04-11 12:47:00,SystemResetWarning,0833.0,4.99,000.00,023.5,022.7,000.0,032.1,025.4,014.3,0000.0,0004.65,0002.29,0001.77
2024-04-11 12:48:00,SystemResetWarning,0833.0,5.00,000.00,023.5,022.7,000.0,032.1,025.4,014.6,0000.0,0004.58,0002.25,0001.74
2024-04-11 12:49:00,SystemResetWarning,0833.2,5.00,000.00,023.5,022.8,000.0,032.1,025.4,014.4,0000.0,0004.52,0002.21,0001.70
2024-04-11 12:50:00,SystemResetWarning,0833.0,5.01,000.00,023.5,022.8,000.0,032.1,025.4,014.5,0000.0,0005.38,0002.21,0001.68
2024-04-11 12:51:00,SystemResetWarning,0833.0,5.00,000.00,023.5,022.8,000.0,032.1,025.4,014.6,0000.0,0005.60,0002.24,0001.68
2024-04-11 12:52:00,SystemResetWarning,0833.0,4.99,000.00,023.5,022.8,000.0,032.1,025.4,014.6,0000.0,0005.67,0002.25,0001.68
2024-04-11 12:53:00,SystemResetWarning,0833.0,5.00,000.00,023.5,022.7,000.0,032.1,025.3,014.6,0000.0,0006.20,0002.28,0001.67
2024-04-11 12:54:00,SystemResetWarning,0833.0,5.00,000.00,023.5,022.7,000.0,032.1,025.3,014.6,0000.0,0006.27,0002.27,0001.67
2024-04-11 12:55:00,SystemResetWarning,0833.0,4.99,000.00,023.5,022.7,000.0,032.1,025.3,014.6,0000.0,0006.36,0002.28,0001.68
2024-04-11 12:56:00,SystemResetWarning,0833.0,5.00,000.00,023.5,022.8,000.0,032.1,025.4,014.6,0000.0,0007.34,0002.28,0001.67
2024-04-11 12:57:00,SystemResetWarning,0833.1,5.01,000.00,023.5,022.8,000.0,032.1,025.4,014.5,0000.0,0008.85,0002.29,0001.67
2024-04-11 12:58:00,SystemResetWarning,0833.0,5.01,000.00,023.5,022.8,000.0,032.1,025.4,014.6,0000.0,0009.16,0002.35,0001.70
2024-04-11 12:59:00,SystemResetWarning,0833.1,4.99,000.00,023.5,022.8,000.0,032.1,025.4,014.6,0000.0,0009.31,0002.37,0001.70
